| time (UTC) | temp F | wind direction | speed MPH | gust MPH | rain 1hr in | rain 24hr in | rain mn in | humidity % | barometer mb |
| 20260904005352 | 67 | 347 | 0.0 | 0.0 | 0.00 | 0.03 | 0.03 | 92 | 997.9 |
| 20260904004848 | 67 | 347 | 0.0 | 0.0 | 0.00 | 0.03 | 0.03 | 92 | 997.7 |
| 20260904004348 | 67 | 347 | 0.0 | 0.0 | 0.00 | 0.03 | 0.03 | 92 | 997.4 |
| 20260904003850 | 67 | 347 | 0.0 | 0.0 | 0.00 | 0.03 | 0.03 | 92 | 997.4 |
| 20260904001848 | 67 | 347 | 0.0 | 0.0 | 0.00 | 0.03 | 0.03 | 92 | 997.3 |
| 20260904001350 | 67 | 347 | 0.0 | 0.0 | 0.00 | 0.03 | 0.03 | 92 | 997.2 |
| 20260904000849 | 67 | 347 | 0.0 | 0.0 | 0.00 | 0.03 | 0.03 | 92 | 997.2 |
| 20260904000350 | 67 | 347 | 0.0 | 0.0 | 0.00 | 0.03 | 0.03 | 92 | 997.1 |
| 20260903235344 | 68 | 347 | 0.0 | 0.0 | 0.00 | 0.03 | 0.03 | 91 | 996.9 |
| 20260903234846 | 68 | 347 | 0.0 | 0.0 | 0.00 | 0.03 | 0.03 | 91 | 997.0 |
| 20260903233845 | 68 | 347 | 0.0 | 0.0 | 0.00 | 0.03 | 0.03 | 91 | 997.0 |
| 20260903233345 | 68 | 347 | 0.0 | 0.0 | 0.00 | 0.03 | 0.03 | 91 | 997.1 |
| 20260903232846 | 68 | 347 | 0.0 | 0.0 | 0.00 | 0.03 | 0.03 | 91 | 997.1 |
| 20260903232346 | 68 | 347 | 0.0 | 0.0 | 0.00 | 0.03 | 0.03 | 91 | 997.2 |
| 20260903231846 | 68 | 347 | 0.0 | 0.0 | 0.00 | 0.03 | 0.03 | 91 | 997.1 |
| 20260903231346 | 68 | 347 | 0.0 | 0.0 | 0.00 | 0.03 | 0.03 | 91 | 996.9 |
| 20260903230845 | 69 | 347 | 0.0 | 0.0 | 0.00 | 0.03 | 0.03 | 91 | 996.9 |
| 20260903230344 | 69 | 347 | 0.0 | 0.0 | 0.00 | 0.03 | 0.03 | 91 | 996.8 |
| 20260903225844 | 69 | 347 | 0.0 | 0.0 | 0.00 | 0.03 | 0.03 | 91 | 997.1 |
| 20260903225342 | 69 | 347 | 0.0 | 0.0 | 0.00 | 0.03 | 0.03 | 90 | 997.2 |
| 20260903224843 | 69 | 347 | 0.0 | 0.0 | 0.00 | 0.03 | 0.03 | 91 | 997.3 |
| 20260903224342 | 69 | 347 | 0.0 | 0.0 | 0.00 | 0.03 | 0.03 | 90 | 997.1 |
| 20260903223841 | 69 | 347 | 0.0 | 0.0 | 0.00 | 0.03 | 0.03 | 90 | 997.1 |
| 20260903223338 | 69 | 347 | 0.0 | 0.0 | 0.00 | 0.03 | 0.03 | 90 | 997.1 |
| 20260903222838 | 69 | 347 | 0.0 | 0.0 | 0.00 | 0.03 | 0.03 | 90 | 997.0 |
| 20260903221835 | 70 | 347 | 0.0 | 0.0 | 0.00 | 0.03 | 0.03 | 90 | 997.4 |
| 20260903221334 | 70 | 347 | 0.0 | 0.0 | 0.00 | 0.03 | 0.03 | 90 | 997.5 |
| 20260903220832 | 70 | 347 | 0.0 | 0.0 | 0.00 | 0.03 | 0.03 | 90 | 997.5 |
| 20260903220334 | 70 | 347 | 0.0 | 0.0 | 0.00 | 0.03 | 0.03 | 90 | 997.5 |
| 20260903215827 | 70 | 347 | 0.0 | 0.0 | 0.00 | 0.03 | 0.03 | 89 | 997.6 |
| 20260903215321 | 70 | 347 | 0.0 | 0.0 | 0.00 | 0.03 | 0.03 | 89 | 997.5 |
| 20260903214816 | 70 | 347 | 0.0 | 0.0 | 0.00 | 0.03 | 0.03 | 89 | 997.4 |
| 20260903214309 | 70 | 347 | 0.0 | 0.0 | 0.00 | 0.03 | 0.03 | 89 | 997.4 |
| 20260903213804 | 71 | 347 | 0.0 | 0.0 | 0.00 | 0.03 | 0.03 | 89 | 997.4 |
| 20260903213258 | 71 | 347 | 0.0 | 0.0 | 0.00 | 0.03 | 0.03 | 89 | 997.4 |
| 20260903212246 | 71 | 347 | 0.0 | 0.0 | 0.00 | 0.03 | 0.03 | 88 | 997.3 |
| 20260903211740 | 71 | 347 | 0.0 | 0.0 | 0.00 | 0.03 | 0.03 | 88 | 997.5 |
| 20260903211233 | 71 | 347 | 0.0 | 0.0 | 0.00 | 0.03 | 0.03 | 88 | 997.5 |
| 20260903210219 | 72 | 347 | 0.0 | 0.0 | 0.00 | 0.03 | 0.03 | 87 | 997.5 |
| 20260903205714 | 72 | 347 | 0.0 | 0.0 | 0.00 | 0.03 | 0.03 | 88 | 997.5 |
| 20260903205207 | 72 | 347 | 0.0 | 0.0 | 0.00 | 0.03 | 0.03 | 87 | 997.5 |
| 20260903204701 | 72 | 345 | 0.0 | 0.0 | 0.00 | 0.03 | 0.03 | 87 | 997.4 |
| 20260903204156 | 72 | 345 | 0.0 | 0.0 | 0.00 | 0.03 | 0.03 | 88 | 997.6 |
| 20260903203650 | 72 | 345 | 0.0 | 0.0 | 0.00 | 0.03 | 0.03 | 87 | 997.6 |
| 20260903203144 | 72 | 345 | 0.0 | 0.0 | 0.00 | 0.03 | 0.03 | 86 | 997.6 |
| 20260903202638 | 72 | 13 | 0.0 | 0.0 | 0.00 | 0.03 | 0.03 | 87 | 997.7 |
| 20260903202132 | 72 | 13 | 0.0 | 0.0 | 0.00 | 0.03 | 0.03 | 87 | 997.8 |
| 20260903201626 | 72 | 13 | 0.0 | 0.0 | 0.00 | 0.03 | 0.03 | 87 | 997.9 |
| 20260903201120 | 71 | 12 | 0.0 | 0.0 | 0.00 | 0.03 | 0.03 | 86 | 997.9 |
| 20260903200619 | 71 | 12 | 0.0 | 0.0 | 0.00 | 0.03 | 0.03 | 87 | 998.0 |
| 20260903200108 | 71 | 12 | 0.0 | 0.0 | 0.00 | 0.03 | 0.03 | 88 | 998.2 |
| 20260903195602 | 70 | 12 | 0.0 | 0.0 | 0.00 | 0.03 | 0.03 | 87 | 998.1 |
| 20260903195055 | 70 | 26 | 0.0 | 0.0 | 0.00 | 0.03 | 0.03 | 87 | 998.1 |
| 20260903194549 | 70 | 33 | 0.0 | 0.0 | 0.00 | 0.03 | 0.03 | 89 | 998.2 |
| 20260903194044 | 70 | 33 | 0.0 | 0.0 | 0.00 | 0.03 | 0.03 | 89 | 998.3 |
| 20260903193538 | 70 | 33 | 0.0 | 0.0 | 0.00 | 0.03 | 0.03 | 89 | 998.3 |
| 20260903193032 | 69 | 33 | 0.0 | 0.0 | 0.00 | 0.03 | 0.03 | 89 | 998.4 |
| 20260903192526 | 69 | 33 | 0.0 | 0.0 | 0.00 | 0.03 | 0.03 | 88 | 998.3 |
| 20260903192019 | 69 | 33 | 0.0 | 0.0 | 0.00 | 0.03 | 0.03 | 89 | 998.3 |
| 20260903191514 | 69 | 33 | 0.0 | 0.0 | 0.00 | 0.03 | 0.03 | 88 | 998.3 |
| 20260903191007 | 69 | 33 | 0.0 | 0.0 | 0.00 | 0.03 | 0.03 | 89 | 998.3 |
| 20260903190501 | 68 | 33 | 0.0 | 0.0 | 0.00 | 0.03 | 0.03 | 88 | 998.4 |
| 20260903185955 | 68 | 33 | 0.0 | 0.0 | 0.00 | 0.03 | 0.03 | 88 | 998.4 |
| 20260903184443 | 68 | 337 | 0.0 | 0.0 | 0.00 | 0.03 | 0.03 | 89 | 998.6 |
| 20260903183940 | 67 | 346 | 0.0 | 0.0 | 0.00 | 0.03 | 0.03 | 90 | 998.7 |
| 20260903182935 | 67 | 346 | 0.0 | 0.0 | 0.00 | 0.03 | 0.03 | 90 | 998.7 |
| 20260903182436 | 67 | 346 | 0.0 | 0.0 | 0.00 | 0.03 | 0.03 | 90 | 998.9 |
| 20260903181936 | 67 | 346 | 0.0 | 0.0 | 0.00 | 0.03 | 0.03 | 89 | 999.0 |
| 20260903181437 | 67 | 346 | 0.0 | 0.0 | 0.00 | 0.03 | 0.03 | 90 | 999.0 |
| 20260903180937 | 66 | 346 | 0.0 | 0.0 | 0.00 | 0.03 | 0.03 | 90 | 999.0 |
| 20260903180434 | 66 | 346 | 0.0 | 0.0 | 0.00 | 0.03 | 0.03 | 89 | 999.1 |
| 20260903175933 | 66 | 346 | 0.0 | 0.0 | 0.00 | 0.03 | 0.03 | 89 | 999.2 |
| 20260903175429 | 66 | 346 | 0.0 | 0.0 | 0.00 | 0.03 | 0.03 | 90 | 999.2 |
| 20260903174929 | 66 | 346 | 0.0 | 0.0 | 0.00 | 0.03 | 0.03 | 90 | 999.3 |
| 20260903174427 | 66 | 346 | 0.0 | 0.0 | 0.00 | 0.03 | 0.03 | 91 | 999.3 |
| 20260903173923 | 66 | 346 | 0.0 | 0.0 | 0.00 | 0.03 | 0.03 | 90 | 999.3 |
| 20260903173422 | 65 | 346 | 0.0 | 0.0 | 0.00 | 0.03 | 0.03 | 90 | 999.6 |
| 20260903172920 | 65 | 346 | 0.0 | 0.0 | 0.00 | 0.03 | 0.03 | 90 | 999.4 |
| 20260903172418 | 65 | 346 | 0.0 | 0.0 | 0.00 | 0.03 | 0.03 | 91 | 999.4 |
| 20260903171414 | 65 | 346 | 0.0 | 0.0 | 0.00 | 0.03 | 0.03 | 91 | 999.3 |
| 20260903170911 | 65 | 346 | 0.0 | 0.0 | 0.00 | 0.03 | 0.03 | 91 | 999.5 |
| 20260903170410 | 65 | 346 | 0.0 | 0.0 | 0.00 | 0.03 | 0.03 | 91 | 999.7 |
| 20260903165404 | 65 | 346 | 0.0 | 0.0 | 0.00 | 0.03 | 0.03 | 92 | 999.7 |
| 20260903164903 | 64 | 346 | 0.0 | 0.0 | 0.00 | 0.03 | 0.03 | 91 | 999.7 |
| 20260903164403 | 64 | 346 | 0.0 | 0.0 | 0.00 | 0.03 | 0.03 | 91 | 999.7 |
| 20260903163904 | 64 | 346 | 0.0 | 0.0 | 0.00 | 0.03 | 0.03 | 92 | 999.6 |
| 20260903163404 | 64 | 346 | 0.0 | 0.0 | 0.00 | 0.03 | 0.03 | 91 | 999.5 |
| 20260903162904 | 64 | 346 | 0.0 | 0.0 | 0.00 | 0.03 | 0.03 | 91 | 999.5 |
| 20260903162405 | 64 | 346 | 0.0 | 0.0 | 0.00 | 0.03 | 0.03 | 91 | 999.5 |
| 20260903161903 | 64 | 346 | 0.0 | 0.0 | 0.00 | 0.03 | 0.03 | 91 | 999.6 |
| 20260903161404 | 64 | 346 | 0.0 | 0.0 | 0.00 | 0.03 | 0.03 | 91 | 999.7 |
| 20260903160901 | 64 | 346 | 0.0 | 0.0 | 0.00 | 0.03 | 0.03 | 92 | 999.7 |
| 20260903155900 | 64 | 346 | 0.0 | 0.0 | 0.00 | 0.03 | 0.03 | 91 | 999.7 |
| 20260903155359 | 64 | 346 | 0.0 | 0.0 | 0.00 | 0.03 | 0.03 | 92 | 999.8 |
| 20260903154900 | 64 | 346 | 0.0 | 0.0 | 0.00 | 0.03 | 0.03 | 92 | 999.8 |
| 20260903154359 | 64 | 346 | 0.0 | 0.0 | 0.00 | 0.03 | 0.03 | 93 | 999.8 |
| 20260903153900 | 64 | 346 | 0.0 | 0.0 | 0.00 | 0.03 | 0.03 | 92 | 999.8 |
| 20260903152901 | 63 | 346 | 0.0 | 0.0 | 0.00 | 0.03 | 0.03 | 92 | 1000.1 |
| 20260903152359 | 63 | 346 | 0.0 | 0.0 | 0.00 | 0.03 | 0.03 | 92 | 1000.3 |
| 20260903151900 | 63 | 346 | 0.0 | 0.0 | 0.00 | 0.03 | 0.03 | 92 | 1000.3 |
| 20260903151400 | 63 | 346 | 0.0 | 0.0 | 0.00 | 0.03 | 0.03 | 92 | 1000.3 |
| 20260903150859 | 63 | 346 | 0.0 | 0.0 | 0.00 | 0.03 | 0.03 | 93 | 1000.4 |
| 20260903150357 | 63 | 346 | 0.0 | 0.0 | 0.00 | 0.03 | 0.03 | 92 | 1000.4 |
| 20260903145858 | 63 | 346 | 0.0 | 0.0 | 0.00 | 0.03 | 0.03 | 92 | 1000.3 |
| 20260903145357 | 63 | 346 | 0.0 | 0.0 | 0.00 | 0.03 | 0.03 | 92 | 1000.4 |
| 20260903144856 | 63 | 346 | 0.0 | 0.0 | 0.00 | 0.03 | 0.03 | 92 | 1000.5 |
| 20260903144353 | 63 | 346 | 0.0 | 0.0 | 0.00 | 0.03 | 0.03 | 92 | 1000.6 |
| 20260903143852 | 63 | 346 | 0.0 | 0.0 | 0.00 | 0.03 | 0.03 | 92 | 1000.5 |
| 20260903143349 | 63 | 346 | 0.0 | 0.0 | 0.00 | 0.03 | 0.03 | 92 | 1000.4 |
| 20260903142848 | 63 | 346 | 0.0 | 0.0 | 0.00 | 0.03 | 0.03 | 92 | 1000.3 |
| 20260903142346 | 63 | 346 | 0.0 | 0.0 | 0.00 | 0.03 | 0.03 | 93 | 1000.4 |
| 20260903141844 | 63 | 346 | 0.0 | 0.0 | 0.00 | 0.03 | 0.03 | 93 | 1000.4 |
| 20260903141342 | 63 | 346 | 0.0 | 0.0 | 0.00 | 0.03 | 0.03 | 93 | 1000.5 |
| 20260903140840 | 62 | 346 | 0.0 | 0.0 | 0.00 | 0.03 | 0.03 | 93 | 1000.7 |
| 20260903140337 | 62 | 346 | 0.0 | 0.0 | 0.00 | 0.03 | 0.03 | 93 | 1000.7 |
| 20260903135835 | 62 | 346 | 0.0 | 0.0 | 0.00 | 0.03 | 0.03 | 93 | 1000.7 |
| 20260903134830 | 62 | 346 | 0.0 | 0.0 | 0.00 | 0.03 | 0.03 | 93 | 1000.6 |
| 20260903134324 | 62 | 346 | 0.0 | 0.0 | 0.00 | 0.03 | 0.03 | 93 | 1000.5 |
| 20260903133819 | 62 | 346 | 0.0 | 0.0 | 0.00 | 0.03 | 0.03 | 93 | 1000.5 |
| 20260903132807 | 62 | 346 | 0.0 | 0.0 | 0.00 | 0.03 | 0.03 | 93 | 1000.5 |
| 20260903131755 | 62 | 346 | 0.0 | 0.0 | 0.00 | 0.03 | 0.03 | 93 | 1000.5 |
| 20260903130743 | 62 | 346 | 0.0 | 0.0 | 0.00 | 0.03 | 0.03 | 93 | 1000.6 |
| 20260903130237 | 62 | 346 | 0.0 | 0.0 | 0.00 | 0.03 | 0.03 | 93 | 1000.6 |
| 20260903125730 | 62 | 346 | 0.0 | 0.0 | 0.00 | 0.03 | 0.03 | 93 | 1000.6 |
| 20260903124719 | 62 | 346 | 0.0 | 0.0 | 0.00 | 0.03 | 0.03 | 93 | 1000.7 |
| 20260903124213 | 61 | 346 | 0.0 | 0.0 | 0.00 | 0.03 | 0.03 | 93 | 1000.8 |
| 20260903123201 | 61 | 346 | 0.0 | 0.0 | 0.00 | 0.03 | 0.03 | 93 | 1000.8 |
| 20260903122655 | 61 | 346 | 0.0 | 0.0 | 0.00 | 0.03 | 0.03 | 93 | 1000.9 |
| 20260903122149 | 61 | 346 | 0.0 | 0.0 | 0.00 | 0.03 | 0.03 | 93 | 1001.0 |
| 20260903121643 | 61 | 346 | 0.0 | 0.0 | 0.00 | 0.03 | 0.03 | 93 | 1001.0 |
| 20260903121137 | 61 | 346 | 0.0 | 0.0 | 0.00 | 0.03 | 0.03 | 93 | 1001.0 |
| 20260903120631 | 61 | 346 | 0.0 | 0.0 | 0.00 | 0.03 | 0.03 | 93 | 1001.1 |
| 20260903120125 | 61 | 346 | 0.0 | 0.0 | 0.00 | 0.03 | 0.03 | 93 | 1001.1 |
| 20260903115618 | 61 | 346 | 0.0 | 0.0 | 0.00 | 0.03 | 0.03 | 93 | 1001.1 |
| 20260903115113 | 61 | 346 | 0.0 | 0.0 | 0.00 | 0.03 | 0.03 | 93 | 1001.1 |
| 20260903114606 | 61 | 346 | 0.0 | 0.0 | 0.00 | 0.03 | 0.03 | 93 | 1001.2 |
| 20260903114101 | 61 | 346 | 0.0 | 0.0 | 0.01 | 0.03 | 0.03 | 93 | 1001.3 |
| 20260903113554 | 61 | 346 | 0.0 | 0.0 | 0.01 | 0.03 | 0.03 | 93 | 1001.4 |
| 20260903113049 | 61 | 346 | 0.0 | 0.0 | 0.01 | 0.03 | 0.03 | 93 | 1001.3 |
| 20260903112544 | 61 | 346 | 0.0 | 0.0 | 0.01 | 0.03 | 0.03 | 93 | 1001.2 |
| 20260903111531 | 61 | 346 | 0.0 | 0.0 | 0.01 | 0.03 | 0.03 | 93 | 1001.2 |
| 20260903111025 | 61 | 346 | 0.0 | 0.0 | 0.01 | 0.03 | 0.03 | 93 | 1001.3 |
| 20260903110519 | 61 | 346 | 0.0 | 0.0 | 0.01 | 0.03 | 0.03 | 93 | 1001.2 |
| 20260903105507 | 61 | 346 | 0.0 | 0.0 | 0.01 | 0.03 | 0.03 | 93 | 1001.2 |
| 20260903104455 | 61 | 346 | 0.0 | 0.0 | 0.01 | 0.03 | 0.03 | 93 | 1001.2 |
| 20260903103443 | 61 | 346 | 0.0 | 0.0 | 0.01 | 0.02 | 0.02 | 93 | 1001.3 |
| 20260903102932 | 61 | 346 | 0.0 | 0.0 | 0.01 | 0.02 | 0.02 | 93 | 1001.3 |
| 20260903102427 | 61 | 346 | 0.0 | 0.0 | 0.01 | 0.02 | 0.02 | 93 | 1001.3 |
| 20260903101415 | 61 | 346 | 0.0 | 0.0 | 0.01 | 0.02 | 0.02 | 93 | 1001.3 |
| 20260903100909 | 61 | 346 | 0.0 | 0.0 | 0.01 | 0.02 | 0.02 | 93 | 1001.2 |
| 20260903100403 | 61 | 346 | 0.0 | 0.0 | 0.01 | 0.02 | 0.02 | 93 | 1001.2 |
| 20260903095856 | 61 | 346 | 0.0 | 0.0 | 0.01 | 0.02 | 0.02 | 93 | 1001.3 |
| 20260903095349 | 61 | 346 | 0.0 | 0.0 | 0.01 | 0.02 | 0.02 | 93 | 1001.3 |
| 20260903094843 | 61 | 346 | 0.0 | 0.0 | 0.01 | 0.02 | 0.02 | 93 | 1001.4 |
| 20260903093841 | 61 | 346 | 0.0 | 0.0 | 0.00 | 0.01 | 0.01 | 93 | 1001.3 |
| 20260903093340 | 61 | 346 | 0.0 | 0.0 | 0.00 | 0.01 | 0.01 | 93 | 1001.4 |
| 20260903092837 | 61 | 346 | 0.0 | 0.0 | 0.00 | 0.01 | 0.01 | 93 | 1001.3 |
| 20260903092341 | 61 | 346 | 0.0 | 0.0 | 0.00 | 0.01 | 0.01 | 93 | 1001.3 |
| 20260903091835 | 61 | 346 | 0.0 | 0.0 | 0.00 | 0.01 | 0.01 | 93 | 1001.3 |
| 20260903091336 | 61 | 346 | 0.0 | 0.0 | 0.00 | 0.01 | 0.01 | 92 | 1001.3 |
| 20260903090834 | 61 | 346 | 0.0 | 0.0 | 0.00 | 0.01 | 0.01 | 93 | 1001.5 |
| 20260903090334 | 61 | 346 | 0.0 | 0.0 | 0.00 | 0.01 | 0.01 | 93 | 1001.5 |
| 20260903085834 | 61 | 346 | 0.0 | 0.0 | 0.00 | 0.01 | 0.01 | 92 | 1001.5 |
| 20260903085334 | 61 | 346 | 0.0 | 0.0 | 0.00 | 0.01 | 0.01 | 92 | 1001.5 |
| 20260903084835 | 61 | 346 | 0.0 | 0.0 | 0.00 | 0.01 | 0.01 | 92 | 1001.5 |
| 20260903084335 | 61 | 346 | 0.0 | 0.0 | 0.00 | 0.01 | 0.01 | 92 | 1001.6 |
| 20260903083835 | 61 | 346 | 0.0 | 0.0 | 0.00 | 0.01 | 0.01 | 92 | 1001.7 |
| 20260903083334 | 61 | 346 | 0.0 | 0.0 | 0.00 | 0.01 | 0.01 | 92 | 1001.7 |
| 20260903082836 | 62 | 346 | 0.0 | 0.0 | 0.00 | 0.01 | 0.01 | 92 | 1001.6 |
| 20260903081835 | 62 | 346 | 0.0 | 0.0 | 0.00 | 0.01 | 0.01 | 92 | 1001.7 |
| 20260903081334 | 62 | 346 | 0.0 | 0.0 | 0.00 | 0.01 | 0.01 | 92 | 1001.8 |
| 20260903080835 | 62 | 346 | 0.0 | 0.0 | 0.00 | 0.01 | 0.01 | 92 | 1001.9 |
| 20260903080334 | 62 | 346 | 0.0 | 0.0 | 0.00 | 0.01 | 0.01 | 92 | 1001.9 |
| 20260903075835 | 62 | 346 | 0.0 | 0.0 | 0.00 | 0.01 | 0.01 | 92 | 1002.0 |
| 20260903075335 | 62 | 346 | 0.0 | 0.0 | 0.00 | 0.01 | 0.01 | 92 | 1002.1 |
| 20260903074834 | 62 | 346 | 0.0 | 0.0 | 0.00 | 0.01 | 0.01 | 92 | 1002.1 |
| 20260903074335 | 62 | 346 | 0.0 | 0.0 | 0.01 | 0.01 | 0.01 | 92 | 1002.0 |
| 20260903073834 | 62 | 346 | 0.0 | 0.0 | 0.01 | 0.01 | 0.01 | 92 | 1002.0 |
| 20260903073334 | 62 | 346 | 0.0 | 0.0 | 0.01 | 0.01 | 0.01 | 92 | 1002.0 |
| 20260903072832 | 62 | 346 | 0.0 | 0.0 | 0.01 | 0.01 | 0.01 | 92 | 1002.0 |
| 20260903072332 | 62 | 346 | 0.0 | 0.0 | 0.01 | 0.01 | 0.01 | 92 | 1002.1 |
| 20260903071329 | 62 | 346 | 0.0 | 0.0 | 0.01 | 0.01 | 0.01 | 92 | 1001.8 |
| 20260903070829 | 62 | 346 | 0.0 | 0.0 | 0.01 | 0.01 | 0.01 | 92 | 1001.8 |
| 20260903070327 | 62 | 346 | 0.0 | 0.0 | 0.01 | 0.01 | 0.01 | 92 | 1001.8 |
| 20260903065826 | 62 | 346 | 0.0 | 0.0 | 0.01 | 0.01 | 0.01 | 92 | 1001.9 |
| 20260903065321 | 62 | 346 | 0.0 | 0.0 | 0.01 | 0.01 | 0.01 | 92 | 1001.9 |
| 20260903064815 | 62 | 346 | 0.0 | 0.0 | 0.01 | 0.01 | 0.01 | 91 | 1002.0 |
| 20260903063802 | 62 | 346 | 0.0 | 0.0 | 0.00 | 0.00 | 0.00 | 91 | 1002.2 |
| 20260903063257 | 62 | 346 | 0.0 | 0.0 | 0.00 | 0.00 | 0.00 | 91 | 1002.3 |
| 20260903062750 | 62 | 346 | 0.0 | 0.0 | 0.00 | 0.00 | 0.00 | 91 | 1002.5 |
| 20260903062244 | 62 | 346 | 0.0 | 0.0 | 0.00 | 0.00 | 0.00 | 91 | 1002.4 |
| 20260903061745 | 62 | 346 | 0.0 | 0.0 | 0.00 | 0.00 | 0.00 | 91 | 1002.5 |
| 20260903061242 | 62 | 346 | 0.0 | 0.0 | 0.00 | 0.00 | 0.00 | 92 | 1002.7 |
| 20260903060742 | 62 | 346 | 0.0 | 0.0 | 0.00 | 0.00 | 0.00 | 92 | 1003.0 |
| 20260903060238 | 62 | 346 | 0.0 | 0.0 | 0.00 | 0.00 | 0.00 | 92 | 1003.3 |
| 20260903055738 | 62 | 346 | 0.0 | 0.0 | 0.00 | 0.00 | 0.00 | 92 | 1003.5 |
| 20260903055239 | 62 | 346 | 0.0 | 0.0 | 0.00 | 0.00 | 0.00 | 92 | 1003.6 |
| 20260903054736 | 62 | 346 | 0.0 | 0.0 | 0.00 | 0.00 | 0.00 | 92 | 1003.6 |
| 20260903054235 | 62 | 346 | 0.0 | 0.0 | 0.00 | 0.00 | 0.00 | 92 | 1003.7 |
| 20260903053230 | 62 | 346 | 0.0 | 0.0 | 0.00 | 0.00 | 0.00 | 92 | 1003.8 |
| 20260903052729 | 62 | 346 | 0.0 | 0.0 | 0.00 | 0.00 | 0.00 | 92 | 1003.9 |
| 20260903052227 | 62 | 346 | 0.0 | 0.0 | 0.00 | 0.00 | 0.00 | 92 | 1003.9 |
| 20260903051724 | 62 | 346 | 0.0 | 0.0 | 0.00 | 0.00 | 0.00 | 92 | 1003.8 |
| 20260903051224 | 62 | 346 | 0.0 | 0.0 | 0.00 | 0.00 | 0.00 | 92 | 1003.7 |
| 20260903050726 | 62 | 346 | 0.0 | 0.0 | 0.00 | 0.00 | 0.00 | 92 | 1003.7 |
| 20260903050223 | 62 | 346 | 0.0 | 0.0 | 0.00 | 0.00 | 0.00 | 92 | 1003.7 |
| 20260903045720 | 62 | 346 | 0.0 | 0.0 | 0.00 | 0.00 | 0.00 | 92 | 1003.8 |
| 20260903044213 | 62 | 346 | 0.0 | 0.0 | 0.00 | 0.00 | 0.00 | 92 | 1003.7 |
| 20260903043211 | 62 | 346 | 0.0 | 0.0 | 0.00 | 0.00 | 0.00 | 92 | 1003.8 |
| 20260903042706 | 62 | 346 | 0.0 | 0.0 | 0.00 | 0.00 | 0.00 | 91 | 1003.9 |
| 20260903042200 | 62 | 346 | 0.0 | 0.0 | 0.00 | 0.00 | 0.00 | 91 | 1003.8 |
| 20260903041654 | 62 | 346 | 0.0 | 0.0 | 0.00 | 0.00 | 0.00 | 91 | 1003.6 |
| 20260903041148 | 62 | 346 | 0.0 | 0.0 | 0.00 | 0.00 | 0.00 | 91 | 1003.8 |
| 20260903035630 | 63 | 346 | 0.0 | 0.0 | 0.00 | 0.00 | 0.00 | 91 | 1004.1 |
| 20260903035125 | 63 | 346 | 0.0 | 0.0 | 0.00 | 0.00 | 0.00 | 91 | 1004.2 |
| 20260903034618 | 63 | 346 | 0.0 | 0.0 | 0.00 | 0.00 | 0.00 | 91 | 1004.1 |
| 20260903034113 | 63 | 346 | 0.0 | 0.0 | 0.00 | 0.00 | 0.00 | 91 | 1004.2 |
| 20260903033607 | 63 | 346 | 0.0 | 0.0 | 0.00 | 0.00 | 0.00 | 91 | 1004.3 |
| 20260903033101 | 63 | 346 | 0.0 | 0.0 | 0.00 | 0.00 | 0.00 | 91 | 1004.4 |
| 20260903032554 | 63 | 346 | 0.0 | 0.0 | 0.00 | 0.00 | 0.00 | 91 | 1004.5 |
| 20260903032049 | 63 | 346 | 0.0 | 0.0 | 0.00 | 0.00 | 0.00 | 91 | 1004.6 |
| 20260903031037 | 63 | 346 | 0.0 | 0.0 | 0.00 | 0.00 | 0.00 | 91 | 1004.8 |
| 20260903030531 | 63 | 346 | 0.0 | 0.0 | 0.00 | 0.00 | 0.00 | 91 | 1004.9 |
| 20260903025521 | 63 | 346 | 0.0 | 0.0 | 0.00 | 0.00 | 0.00 | 91 | 1004.9 |
| 20260903024507 | 63 | 346 | 0.0 | 0.0 | 0.00 | 0.00 | 0.00 | 91 | 1004.9 |
| 20260903024001 | 63 | 346 | 0.0 | 0.0 | 0.00 | 0.00 | 0.00 | 91 | 1004.8 |
| 20260903023455 | 63 | 346 | 0.0 | 0.0 | 0.00 | 0.00 | 0.00 | 91 | 1004.8 |
| 20260903022949 | 63 | 346 | 0.0 | 0.0 | 0.00 | 0.00 | 0.00 | 91 | 1004.8 |
| 20260903022442 | 63 | 346 | 0.0 | 0.0 | 0.00 | 0.00 | 0.00 | 91 | 1004.9 |
| 20260903021937 | 63 | 346 | 0.0 | 0.0 | 0.00 | 0.00 | 0.00 | 91 | 1004.9 |
| 20260903021431 | 63 | 346 | 0.0 | 0.0 | 0.00 | 0.00 | 0.00 | 91 | 1005.0 |
| 20260903020925 | 63 | 346 | 0.0 | 0.0 | 0.00 | 0.00 | 0.00 | 91 | 1005.2 |
| 20260903015913 | 63 | 346 | 0.0 | 0.0 | 0.00 | 0.00 | 0.00 | 91 | 1005.4 |
| 20260903015407 | 63 | 346 | 0.0 | 0.0 | 0.00 | 0.01 | 0.00 | 91 | 1005.4 |
| 20260903014901 | 63 | 346 | 0.0 | 0.0 | 0.00 | 0.01 | 0.00 | 91 | 1005.3 |
| 20260903014355 | 64 | 346 | 0.0 | 0.0 | 0.00 | 0.01 | 0.00 | 91 | 1005.2 |
| 20260903013849 | 64 | 346 | 0.0 | 0.0 | 0.00 | 0.01 | 0.00 | 91 | 1005.4 |
| 20260903013343 | 64 | 346 | 0.0 | 0.0 | 0.00 | 0.01 | 0.00 | 91 | 1005.4 |
| 20260903012331 | 64 | 346 | 0.0 | 0.0 | 0.00 | 0.01 | 0.00 | 91 | 1005.3 |
| 20260903011824 | 64 | 346 | 0.0 | 0.0 | 0.00 | 0.01 | 0.00 | 90 | 1005.3 |
| 20260903010307 | 64 | 346 | 0.0 | 0.0 | 0.00 | 0.01 | 0.00 | 90 | 1005.2 |
| 20260903005800 | 64 | 346 | 0.0 | 0.0 | 0.00 | 0.01 | 0.00 | 90 | 1004.9 |